564  
ASUS44 KMAF 270410  
RWRMAF  
MIDLAND AREA WEATHER ROUNDUP  
NATIONAL WEATHER SERVICE MIDLAND TX  
1100 PM CDT WED JUL 26 2017  
   
..IN SOUTHWEST TEXAS AND SOUTHEAST NEW MEXICO
 
 
 
CITY SKY/WX TMP DP RH WIND PRES REMARKS
 
ALPINE CLEAR 79 55 44 SE10 30.21R  
ANDREWS FAIR 82 52 35 S8 30.08R  
ARTESIA CLOUDY 81 63 54 SW15 30.06S  
BIG SPRING CLEAR 85 55 35 SE12 30.07R  
CARLSBAD CLEAR 82 65 56 NW8 30.04R  
DRYDEN N/A 88 57 34 SE13 30.01R  
FORT STOCKTON CLEAR 84 56 38 SE10G20 30.05R  
GUAD PASS CLOUDY 77 61 57 N13 30.23R  
HOBBS CLEAR 82 48 30 SE13 30.09R  
MARFA CLEAR 76 57 51 E12 30.19R  
MIDLAND AIRPK CLEAR 87 53 30 S12 30.06S  
MIDLAND INTL CLEAR 85 56 37 S12 30.06R  
ODESSA CLEAR 87 53 31 S12 30.07R  
PECOS CLEAR 87 55 32 E12 30.01R  
PRESIDIO FAIR 90 56 31 NE9G16 30.01R  
SEMINOLE CLEAR 80 53 38 S8 30.09R  
SNYDER CLEAR 86 58 38 S10 30.04R  
WINK CLEAR 87 54 32 SE12 30.02R  

   
..OTHER STATIONS IN TEXAS
 
 
 
CITY SKY/WX TMP DP RH WIND PRES REMARKS
 
ABILENE CLEAR 84 60 44 SE12 30.02R  
AMARILLO PTCLDY 86 58 38 S12 30.07R  
AUSTIN PTCLDY 81 72 74 S7 30.04R  
BROWNSVILLE CLEAR 78 75 90 S6 30.06R  
CORPUS CHRISTI PTCLDY 81 75 82 SE8 30.05R  
DALLAS FTW CLOUDY 90 71 53 SE15 29.97S  
DEL RIO CLEAR 87 67 51 SE15G24 29.98R  
EL PASO PTCLDY 83 64 52 CALM 30.08R  
HOUSTON INT PTCLDY 84 73 69 S6 30.05R  
LUBBOCK MOCLDY 86 55 34 S13 30.05S  
SAN ANGELO CLEAR 83 58 42 S5 30.02R  
SAN ANTONIO PTCLDY 82 70 66 S13 30.06R  
WACO CLEAR 88 69 53 S15 30.01R  
WICHITA FALLS NOT AVBL  

   
..OTHER LOCATIONS IN NEW MEXICO
 
 
 
CITY SKY/WX TMP DP RH WIND PRES REMARKS
 
ALAMOGORDO CLOUDY 81 59 47 S3 30.10R  
ALBUQUERQUE CLOUDY 87 52 29 SE6 30.14R  
CANNON AFB NOT AVBL  
CLOVIS PTCLDY 80 63 55 S9 30.12R  
HOLLOMAN AFB CLOUDY 83 60 44 S12 30.09R  
ROSWELL CLOUDY 84 60 44 S14 30.05R  
RUIDOSO CLOUDY 64 57 77 W5 30.33R  
SANTA FE CLOUDY 78 54 43 SE10 30.23R  
TRUTH OR CONSE PTCLDY 84 56 38 NW12 30.11R  
TUCUMCARI CLOUDY 82 65 56 W7 30.06R  

 
 
 
CLICK HERE TO GO TO PREVIOUS BULLETINS.

The Nexlab TX Page
The Nexlab NM Page Main Text Page